Location: Miami
(25.6830°N, 80.1700°W)
Time: 21:06:35
(UTC-04:00)

Tiangong 2 - Visible Passes

Search period start: 15 July 2018 00:00
Search period end: 25 July 2018 00:00
Orbit: 386 x 394 km, 42.8° (Epoch: 15 July)

Date Brightness Start Highest point End Pass type
(mag) Time Alt. Az. Time Alt. Az. Time Alt. Az.
23 Jul 3.4 22:00:44 10° NNW 22:02:33 18° NNE 22:02:33 18° NNE visible
24 Jul 3.8 21:04:02 10° N 21:05:07 11° NNE 21:06:12 10° NE visible
24 Jul 4.4 22:39:09 10° NW 22:39:41 14° NW 22:39:41 14° NW visible
